Date,TemperatureHighF,TemperatureAvgF,TemperatureLowF,DewpointHighF,DewpointAvgF,DewpointLowF,HumidityHigh,HumidityAvg,HumidityLow,PressureMaxIn,PressureMinIn,WindSpeedMaxMPH,WindSpeedAvgMPH,GustSpeedMaxMPH,PrecipitationSumIn
2013-1-1,81.1,73.4,66.9,61.8,58.4,36.6,77,60,44,30.15,30.00,0,0,0,0.00
2013-1-2,68.9,64.7,63.0,60.8,60.3,59.7,91,86,77,30.03,29.97,0,0,0,0.00
2013-1-3,82.9,76.1,63.0,70.8,67.5,60.3,94,75,58,30.12,29.94,0,0,0,0.00
2013-1-4,84.7,76.2,67.1,71.8,69.0,65.6,97,80,59,30.18,30.06,0,0,0,0.00
2013-1-5,81.9,81.7,73.0,71.5,70.7,70.7,95,70,69,30.21,30.09,0,0,5,0.04
2013-1-11,74.3,74.3,74.3,68.8,68.8,68.8,83,83,83,30.15,30.15,2,2,5,0.00
2013-1-12,82.2,78.3,73.8,66.4,66.3,64.1,77,67,56,30.09,30.03,6,3,15,0.00
2013-1-13,78.3,78.3,78.3,66.4,66.4,66.4,67,67,67,30.03,30.03,3,3,11,0.00
2013-1-14,78.3,78.3,78.3,66.4,66.4,66.4,67,67,67,30.03,30.03,3,3,11,0.00
2013-1-15,78.3,78.3,78.3,66.4,66.4,66.4,67,67,67,30.03,30.03,3,3,11,0.00
2013-1-16,78.3,78.3,78.3,66.4,66.4,66.4,67,67,67,30.03,30.03,3,3,11,0.00
2013-1-17,84.7,74.5,62.1,71.7,65.0,52.7,85,73,61,30.03,29.88,14,5,17,1.29
2013-1-18,73.8,64.6,53.1,59.4,51.6,43.8,78,63,49,30.18,30.03,15,5,15,1.29
2013-1-19,73.4,70.3,67.3,69.7,64.6,56.3,98,83,62,30.18,30.06,11,2,11,1.29
2013-1-20,82.6,72.3,65.5,72.6,67.5,64.9,98,86,65,30.12,29.97,9,2,10,1.29
2013-1-21,83.1,73.1,67.1,72.4,68.4,65.5,98,86,65,30.06,29.91,9,2,13,0.25
2013-1-22,78.1,69.5,63.1,65.9,57.8,49.3,98,69,46,30.18,29.94,15,4,15,0.00
2013-1-23,79.7,69.2,61.9,59.3,52.9,46.8,78,58,34,30.27,30.12,14,4,14,0.00
2013-1-24,78.1,67.5,61.0,56.3,49.2,37.5,82,55,31,30.24,30.12,13,3,13,0.00
2013-1-25,80.2,68.0,58.8,59.7,54.4,47.9,81,64,39,30.24,30.12,8,2,8,0.00
2013-1-26,81.5,69.6,60.4,59.7,55.4,47.2,86,63,35,30.21,30.12,11,2,11,0.00
2013-1-27,83.7,71.8,62.8,63.5,58.0,51.6,86,64,36,30.27,30.15,13,4,13,0.00
2013-1-28,81.3,75.2,71.6,69.2,63.8,60.0,85,68,51,30.30,30.18,14,4,14,0.00
2013-1-29,80.6,74.7,72.3,71.8,68.5,64.6,92,81,67,30.21,30.06,15,3,15,0.79
2013-1-30,83.3,75.5,71.8,69.6,65.3,62.0,90,71,50,30.09,29.91,15,5,17,0.00
2013-1-31,72.3,67.1,58.5,71.6,57.4,34.9,98,74,39,30.15,29.88,12,4,13,0.04
2013-2-1,75.4,63.4,53.1,52.6,45.5,35.0,68,53,42,30.21,30.09,14,4,14,0.00
2013-2-2,76.6,64.3,56.1,54.4,45.5,32.8,82,52,34,30.21,30.06,11,2,11,0.00
2013-2-3,77.2,64.7,57.2,54.6,46.8,35.9,88,57,25,30.12,30.00,13,2,13,0.83
2013-2-4,77.2,64.1,51.3,54.4,45.5,37.1,80,54,25,30.09,29.94,13,2,13,0.00
2013-2-5,81.0,68.4,56.5,62.8,56.4,50.1,89,68,37,30.03,29.94,12,2,12,0.83
2013-2-6,86.2,72.0,62.8,68.7,62.1,54.7,95,73,43,30.06,29.97,12,2,12,0.00
2013-2-7,82.6,75.1,70.7,67.9,64.1,59.0,80,69,49,30.06,29.88,58,4,58,0.30
2013-2-8,83.7,74.2,68.9,71.4,65.2,54.6,96,76,39,30.00,29.85,15,3,15,1.13
2013-2-9,85.3,73.3,65.7,70.7,63.3,58.0,97,73,43,30.12,29.94,15,4,15,0.00
2013-2-10,76.8,71.8,67.8,65.2,60.9,58.1,91,69,56,30.24,30.09,17,5,17,1.37
2013-2-11,84.4,74.6,69.6,65.2,62.2,58.9,77,66,46,30.18,30.03,16,4,16,0.00
2013-2-12,85.3,75.1,66.4,70.0,67.2,63.7,93,77,55,30.09,29.91,18,4,18,0.00
2013-2-13,84.7,76.4,70.0,74.1,70.6,67.7,98,83,67,29.97,29.82,20,4,20,0.00
2013-2-14,80.1,70.5,64.4,74.1,68.4,63.8,98,93,78,29.97,29.82,19,3,19,1.87
2013-2-15,74.7,67.8,64.9,71.9,66.6,64.4,98,96,85,30.03,29.88,8,2,8,0.00
2013-2-16,74.3,65.8,55.4,65.2,54.7,39.0,98,71,35,30.03,29.82,21,6,21,0.00
2013-2-17,55.4,50.3,45.1,39.5,30.1,18.5,55,46,26,30.27,30.00,18,6,18,0.00
2013-2-18,70.3,60.1,47.7,54.7,39.7,25.3,65,47,35,30.27,30.15,12,5,15,0.00
2013-2-19,81.7,72.3,63.1,66.8,58.9,49.4,88,64,43,30.15,30.03,20,4,20,0.00
2013-2-20,83.8,72.7,64.9,68.2,65.1,59.2,97,79,48,30.09,29.94,12,2,12,0.00
2013-2-21,85.5,74.1,66.0,71.3,66.8,62.3,96,79,51,30.06,29.94,12,2,12,0.00
2013-2-22,86.0,77.2,72.5,72.9,70.3,66.9,91,80,62,30.06,29.94,20,5,20,0.00
2013-2-23,86.5,77.4,71.8,73.3,70.8,67.9,94,81,60,30.00,29.82,21,6,21,0.00
2013-2-24,89.6,78.3,71.4,75.6,71.6,62.8,98,82,43,29.94,29.82,18,3,18,3.82
2013-2-25,87.3,77.3,70.0,76.5,72.0,68.5,96,85,62,29.88,29.76,22,4,22,0.00
2013-2-26,88.3,79.5,75.0,75.5,72.2,67.8,95,79,54,29.85,29.71,23,6,23,0.00
2013-2-27,78.6,71.1,64.0,74.9,64.5,55.6,98,81,48,29.94,29.79,10,3,10,0.91
2013-2-28,72.0,65.4,59.7,65.1,51.7,40.7,98,64,33,29.97,29.82,13,4,13,0.00
2013-3-1,68.2,63.2,59.4,55.8,46.7,40.9,75,56,42,29.97,29.82,11,4,11,0.00
2013-3-2,68.9,59.6,54.0,47.1,37.2,30.5,65,44,31,30.00,29.88,23,6,23,0.00
2013-3-3,64.2,56.2,50.7,40.2,35.4,32.2,64,47,34,30.09,29.91,26,6,26,0.00
2013-3-4,58.8,48.0,43.2,37.7,31.9,27.3,70,54,35,30.15,30.06,17,5,17,0.00
2013-3-6,77.9,68.4,54.5,63.5,46.3,28.4,95,50,23,30.15,29.88,24,7,24,0.00
2013-3-7,74.5,61.2,48.6,54.4,41.3,31.0,82,50,29,30.15,30.00,16,4,16,0.00
2013-3-8,79.0,65.4,54.0,54.2,48.0,40.0,88,58,26,30.15,30.03,13,2,13,0.00
2013-3-9,82.0,67.7,56.8,59.8,50.9,47.7,87,57,34,30.15,30.06,15,3,15,0.00
2013-3-10,78.8,71.4,66.7,59.8,52.5,48.2,71,52,38,30.12,30.00,14,6,14,0.83
2013-3-11,82.2,72.9,68.5,61.7,58.2,53.6,71,61,41,30.09,29.88,15,5,15,0.00
2013-3-12,81.9,74.9,71.1,71.2,65.4,61.0,83,73,61,29.97,29.85,22,6,22,0.33
2013-3-13,71.6,69.5,67.5,66.5,64.2,60.7,87,83,79,29.94,29.94,10,5,10,0.00
2013-3-15,77.5,69.3,60.1,56.7,48.4,42.4,81,49,34,30.21,29.94,13,3,13,8.64
2013-3-16,79.7,67.8,57.2,61.4,50.8,44.2,88,58,31,30.15,30.00,14,2,14,0.00
2013-3-17,80.8,69.9,61.2,60.4,56.2,52.5,81,63,41,30.12,29.97,17,2,17,0.00
2013-3-18,84.9,74.3,68.5,71.4,65.2,60.2,95,75,50,30.06,29.88,20,4,20,0.38
2013-3-19,81.0,73.4,69.3,70.7,68.5,65.3,98,86,60,30.00,29.79,10,2,13,0.29
2013-3-20,86.4,76.2,67.3,72.9,64.6,54.3,97,70,43,29.94,29.74,17,4,17,0.00
2013-3-21,80.4,69.4,61.7,63.6,52.5,41.0,97,60,30,29.91,29.76,17,4,17,0.00
2013-3-22,81.1,70.1,58.3,70.6,58.7,53.1,91,70,42,29.97,29.85,21,3,21,0.00
2013-3-23,88.2,78.7,71.6,78.1,72.7,70.2,97,83,59,29.94,29.74,20,4,20,0.00
2013-3-24,91.6,80.6,72.9,76.7,71.1,63.4,98,76,42,29.85,29.62,58,6,58,0.00
2013-3-25,84.4,75.2,65.5,74.1,55.6,29.9,98,58,23,29.94,29.68,179,4,179,0.00
2013-3-26,71.4,62.8,53.8,36.2,30.6,22.9,45,30,22,30.15,29.91,20,7,20,0.00
2013-3-27,73.4,59.6,47.5,43.5,35.4,22.9,61,41,28,30.18,30.06,15,4,15,9.02
2013-3-28,77.4,64.1,50.9,48.6,41.9,27.6,77,47,25,30.21,30.09,15,3,15,0.00
2013-3-29,82.4,67.5,55.9,50.2,46.3,40.0,73,48,31,30.24,30.12,14,3,14,0.00
2013-3-30,78.8,70.0,63.1,52.4,47.9,44.0,63,47,31,30.24,30.09,10,3,10,0.95
2013-3-31,84.2,74.3,62.2,66.7,60.6,50.8,82,63,47,30.15,30.00,20,4,20,0.95
2013-4-1,89.4,78.4,72.1,75.5,64.8,0.0,100,67,30,30.03,29.88,16,4,16,0.95
2013-4-2,88.7,76.6,67.3,70.4,65.6,58.4,98,71,40,30.03,29.91,10,4,12,0.95
2013-4-3,87.3,76.8,73.2,70.7,68.3,66.7,85,76,53,30.03,29.94,11,3,11,0.95
2013-4-6,85.6,74.1,59.9,69.2,61.3,56.2,98,65,45,30.06,29.94,15,5,15,11.97
2013-4-7,81.3,74.9,70.9,64.2,60.6,56.0,73,62,46,30.09,29.94,172,6,229,0.87
2013-4-8,83.7,74.5,64.9,70.9,61.5,58.1,90,65,44,30.12,29.97,172,3,172,0.00
2013-4-9,83.1,76.4,73.0,68.8,66.7,63.9,81,72,58,30.12,30.00,13,5,14,0.38
2013-4-10,86.9,79.6,73.9,73.9,71.3,67.3,88,76,62,30.06,29.94,58,4,58,0.03
2013-4-11,86.2,79.2,75.2,74.9,72.5,70.7,91,81,64,29.97,29.82,3,3,3,0.67
2013-4-12,90.7,81.9,77.0,80.4,75.6,74.2,93,82,62,29.91,29.79,6,3,6,0.04
2013-4-13,90.7,79.7,73.9,79.0,72.7,69.1,93,80,60,29.94,29.79,11,2,11,0.29
2013-4-14,89.2,78.0,73.8,80.1,75.1,71.3,97,91,67,29.94,29.85,17,3,17,0.04
2013-4-16,90.7,82.7,76.6,79.2,74.9,71.1,89,77,64,30.06,29.91,58,6,229,0.00
2013-4-17,90.5,81.1,74.8,74.8,68.0,63.3,85,66,45,30.06,29.97,15,4,15,0.00
2013-4-18,90.3,81.7,75.7,74.9,71.7,67.2,87,73,57,30.03,29.91,58,4,58,0.00
2013-4-19,93.0,83.9,77.2,76.2,72.9,67.3,91,71,49,30.00,29.88,25,6,25,0.00
2013-4-20,92.7,80.4,73.6,82.2,74.4,70.5,96,83,62,30.03,29.88,116,4,116,0.00
2013-4-21,92.5,80.3,72.5,79.4,72.9,67.8,97,80,53,30.03,29.91,115,3,115,0.00
2013-4-22,92.5,78.2,72.0,75.5,70.4,65.4,96,78,44,29.97,29.88,11,3,11,0.00
2013-4-23,87.6,77.9,69.1,70.3,64.6,57.9,96,66,44,30.03,29.88,19,5,19,0.00
2013-4-24,74.5,73.5,72.9,61.7,59.6,58.2,66,62,59,30.03,29.94,12,5,12,0.00
2013-4-26,88.2,80.5,70.9,67.1,63.0,59.0,73,57,41,30.15,29.97,17,5,17,3.45
2013-4-27,88.2,79.2,73.2,66.7,61.7,57.1,71,56,40,30.15,30.00,172,6,172,0.00
2013-4-28,86.4,78.9,73.0,64.6,61.1,55.9,71,56,37,30.06,29.94,115,5,115,1.08
2013-4-29,92.3,80.8,74.1,71.4,66.7,62.1,81,64,39,29.97,29.88,18,4,18,0.00
2013-4-30,94.8,77.6,69.6,79.3,70.9,66.7,97,81,46,29.94,29.85,14,2,14,0.00
2013-5-1,89.8,76.3,70.5,80.3,71.9,69.6,98,88,60,29.94,29.85,13,2,13,18.74
2013-5-2,81.5,73.3,70.9,78.6,72.0,68.7,98,96,86,29.91,29.76,26,4,26,0.00
2013-5-3,92.5,77.3,68.7,76.0,70.8,65.8,98,83,46,29.79,29.62,17,4,17,0.00
2013-5-4,91.6,79.2,68.7,77.7,68.3,61.7,98,73,42,29.74,29.62,14,3,14,0.00
2013-5-5,87.4,78.0,69.1,75.6,70.9,61.1,97,80,46,29.88,29.68,15,4,15,0.00
2013-5-6,82.0,82.0,82.0,75.6,75.6,75.6,81,81,81,29.97,29.82,12,3,12,0.00
2013-5-7,82.0,82.0,82.0,75.6,75.6,75.6,81,81,81,30.00,29.88,15,4,15,0.00
2013-5-8,82.0,82.0,82.0,75.6,75.6,75.6,81,81,81,30.09,29.97,12,2,12,0.00
2013-5-9,82.0,82.0,82.0,75.6,75.6,75.6,81,81,81,30.09,30.00,11,2,11,0.00
2013-5-10,82.0,82.0,82.0,75.6,75.6,75.6,81,81,81,30.06,29.94,18,3,18,0.00
2013-5-11,82.0,82.0,82.0,75.6,75.6,75.6,81,81,81,30.03,29.88,22,4,22,0.00
2013-5-12,82.0,82.0,82.0,75.6,75.6,75.6,81,81,81,30.00,29.85,17,2,17,0.00
2013-5-13,82.0,82.0,82.0,75.6,75.6,75.6,81,81,81,30.03,29.94,15,3,15,18.74
2013-5-14,82.0,82.0,82.0,75.6,75.6,75.6,81,81,81,30.12,30.00,58,5,58,0.00
2013-5-15,82.0,82.0,82.0,75.6,75.6,75.6,81,81,81,30.12,30.09,10,4,10,0.00
2013-5-22,0.0,0.0,0.0,0.0,0.0,0.0,0,0,100,30.09,29.82,59,3,59,0.00
2013-5-23,0.0,0.0,0.0,0.0,0.0,0.0,0,0,100,29.97,29.82,12,3,12,0.00
2013-5-24,0.0,0.0,0.0,0.0,0.0,0.0,0,0,100,30.03,29.88,15,3,15,0.00
2013-5-25,0.0,0.0,0.0,0.0,0.0,0.0,0,0,100,30.12,29.94,115,5,115,0.00
2013-5-26,0.0,0.0,0.0,0.0,0.0,0.0,0,0,100,30.12,30.03,15,6,15,0.00
2013-5-27,0.0,0.0,0.0,0.0,0.0,0.0,0,0,100,30.12,30.00,17,6,17,0.00
2013-5-28,0.0,0.0,0.0,0.0,0.0,0.0,0,0,100,30.06,30.00,19,5,19,0.00
2013-5-29,0.0,0.0,0.0,0.0,0.0,0.0,0,0,100,30.03,29.94,172,5,172,18.74
2013-6-1,91.9,69.0,0.0,81.4,64.9,0.0,97,73,65,30.03,29.88,115,2,115,0.81
2013-6-2,97.2,83.5,73.6,86.8,75.7,72.2,98,80,52,29.94,29.85,15,2,15,0.43
2013-6-3,95.5,82.9,75.0,84.3,75.5,72.6,96,80,55,29.97,29.82,13,2,13,0.43
2013-6-4,91.8,81.7,75.9,80.2,76.3,0.0,97,85,61,30.00,29.88,8,1,8,0.43
2013-6-5,86.9,82.3,79.3,80.1,77.7,0.0,92,86,74,29.97,29.82,10,2,10,0.43
2013-6-6,94.1,81.7,75.6,83.8,77.8,0.0,98,89,65,29.85,29.74,27,6,27,1.16
2013-6-7,97.3,80.7,74.8,82.3,75.5,73.6,98,86,50,29.94,29.76,11,3,14,0.96
2013-6-8,92.3,80.0,74.7,84.2,77.5,74.1,98,92,72,30.06,29.91,13,2,13,4.17
2013-6-9,94.1,84.6,77.2,82.0,76.9,74.0,97,79,56,30.06,29.94,12,3,12,0.04
2013-6-10,94.8,85.8,79.7,80.9,77.5,76.3,91,78,59,30.03,29.94,11,3,11,0.00
2013-6-13,96.1,88.4,77.9,85.2,75.8,71.1,97,67,51,30.00,29.88,13,2,13,0.00
2013-6-14,100.9,86.3,76.3,83.6,72.1,64.1,94,66,32,29.94,29.79,16,2,16,0.00
2013-6-15,90.5,81.6,76.8,76.6,75.1,71.6,93,81,59,29.97,29.82,8,2,8,0.00
2013-6-16,96.6,87.9,78.6,81.7,76.5,72.2,92,70,50,30.03,29.94,13,2,13,0.00
2013-6-17,100.6,89.6,80.4,82.3,76.2,71.3,88,67,44,30.03,29.94,14,3,14,0.00
2013-6-18,102.2,89.6,80.1,83.2,75.5,71.6,88,65,42,30.03,29.94,15,3,15,0.00
2013-6-19,101.5,88.1,79.2,85.1,76.2,71.2,94,70,43,30.00,29.91,14,3,14,0.08
2013-6-20,100.9,87.4,77.7,80.4,72.9,64.2,88,65,35,30.06,29.94,13,2,13,4.29
2013-6-21,99.0,88.2,79.9,78.4,74.2,69.7,84,66,41,30.06,29.94,13,3,13,0.00
2013-6-22,94.8,87.4,79.9,77.7,73.4,67.4,85,65,46,30.03,29.94,58,3,58,0.00
2013-6-27,92.1,85.2,80.2,80.3,76.1,73.0,87,75,62,30.03,29.88,8,2,10,0.75
2013-6-28,100.0,86.1,75.4,85.5,75.1,68.5,96,73,43,29.94,29.79,15,2,15,1.21
2013-6-29,100.4,84.7,75.2,85.0,76.3,70.8,97,78,46,29.85,29.74,19,2,19,0.00
2013-6-30,97.7,82.3,0.0,84.5,75.6,0.0,96,82,44,29.91,29.76,20,3,20,0.79
2013-7-1,97.5,85.1,77.0,81.8,77.1,68.7,96,79,44,29.97,29.82,21,4,21,0.08
2013-7-2,99.1,86.1,78.3,83.5,77.8,74.0,93,78,53,30.06,29.91,12,4,15,0.00
2013-7-3,97.0,85.5,77.9,81.7,76.5,0.0,91,77,32,30.06,29.97,17,3,17,0.17
2013-7-4,96.1,85.6,80.6,82.3,76.8,72.7,88,76,54,30.12,30.00,58,3,58,0.12
2013-7-5,92.8,84.5,77.4,79.7,76.3,72.5,93,77,61,30.09,30.00,58,3,58,0.58
2013-7-6,93.4,85.9,80.4,76.9,74.1,0.0,100,70,49,30.06,29.94,10,4,13,0.58
2013-7-7,93.7,86.5,80.1,77.8,74.7,70.2,87,69,51,30.06,29.94,15,4,15,0.13
2013-7-8,94.3,84.6,80.4,75.6,72.9,69.0,80,69,48,30.09,30.00,10,3,12,0.00
2013-7-9,95.7,84.3,79.0,78.1,72.8,66.2,83,69,44,30.09,29.97,58,2,58,0.42
2013-7-10,91.6,81.4,73.2,79.7,74.3,0.0,100,81,58,30.03,29.94,115,2,115,1.37
2013-7-11,99.1,87.1,77.7,85.1,75.2,67.6,94,70,43,29.97,29.88,10,2,12,1.37
2013-7-12,102.4,86.6,77.7,84.1,75.6,70.3,94,73,39,29.94,29.82,8,2,9,0.00
2013-7-15,96.8,83.1,74.3,86.4,75.3,71.4,98,79,51,30.03,29.85,12,3,12,2.36
2013-7-16,89.8,79.4,74.8,78.3,74.0,69.7,95,84,59,30.12,30.00,172,4,172,0.96
2013-7-17,84.9,79.9,76.8,77.8,74.6,0.0,100,85,73,30.09,30.00,12,3,12,0.13
2013-7-18,93.9,80.9,74.5,82.2,75.2,68.6,98,84,59,30.12,30.00,16,2,16,0.62
2013-7-19,97.0,83.5,74.8,83.8,77.6,74.0,98,84,58,30.09,30.00,58,2,58,0.00
2013-7-20,96.4,85.0,79.2,85.7,78.2,73.5,93,81,61,30.09,30.00,18,4,18,0.04
2013-7-21,98.4,84.4,76.5,82.6,77.4,72.6,95,81,53,30.12,30.00,13,2,13,0.50
2013-7-22,99.0,86.9,77.4,82.6,76.4,69.5,97,74,45,30.12,30.03,58,3,58,0.00
2013-7-23,99.5,87.8,78.6,83.0,76.1,68.6,92,71,41,30.06,29.94,173,3,173,0.00
2013-7-24,100.0,87.8,78.6,79.7,70.4,55.2,92,61,27,29.97,29.85,11,4,13,0.00
2013-7-25,90.3,81.9,77.5,76.7,73.8,71.4,91,77,56,29.97,29.91,10,3,10,0.00
2013-7-26,98.1,85.8,79.3,79.5,75.4,68.0,90,73,43,30.00,29.88,15,4,15,0.00
2013-7-27,99.0,84.8,78.4,83.3,76.9,71.9,92,79,49,29.97,29.88,12,2,12,0.00
2013-7-28,97.7,81.9,77.2,83.8,76.7,73.4,93,85,57,30.03,29.88,10,1,10,0.00
2013-7-29,98.1,84.1,76.6,84.3,77.0,72.5,97,81,49,30.09,29.94,11,2,11,5.61
2013-7-30,96.3,86.7,76.8,85.0,78.0,65.1,94,77,59,30.15,30.00,13,3,13,5.61
2013-7-31,95.4,87.2,81.5,81.0,76.3,72.4,88,71,51,30.09,29.94,11,3,58,6.89
2013-8-1,96.6,86.8,80.4,77.6,73.7,69.2,82,66,46,30.00,29.88,115,3,115,5.61
2013-8-2,98.1,83.2,77.5,79.6,74.0,66.8,92,76,40,29.97,29.85,11,2,11,5.61
2013-8-3,90.3,80.0,76.3,82.0,76.8,68.2,95,90,59,30.09,29.94,172,2,172,1.29
2013-8-4,99.5,83.1,74.1,86.4,76.8,71.8,97,84,49,30.06,29.91,33,2,33,9.47
2013-8-5,97.0,83.1,76.6,86.4,77.6,73.6,97,84,57,30.00,29.88,10,2,10,9.55
2013-8-6,96.8,86.0,76.3,83.6,76.9,74.4,96,76,54,29.94,29.82,8,2,8,9.47
2013-8-7,100.2,87.2,79.7,83.6,76.8,0.0,96,74,49,29.94,29.82,172,2,172,9.47
2013-8-8,97.7,87.6,81.3,80.7,76.0,69.7,87,70,48,29.97,29.88,14,3,14,9.47
2013-8-9,97.9,86.5,81.1,79.2,74.6,69.2,83,69,49,30.03,29.88,15,3,229,0.04
2013-8-10,81.9,81.8,81.7,75.5,75.2,74.9,81,81,80,30.03,30.03,6,2,6,0.00
2013-8-15,97.3,87.0,77.2,81.3,76.2,70.6,92,72,47,30.03,29.88,14,4,14,0.09
2013-8-16,98.6,86.7,79.5,84.8,77.8,72.3,90,76,50,30.03,29.94,10,2,10,9.72
2013-8-17,97.2,88.4,82.9,81.4,78.3,75.3,88,73,54,30.06,29.94,172,2,172,0.00
2013-8-18,95.5,87.4,82.6,81.4,76.8,72.6,87,72,53,30.03,29.94,13,3,13,0.04
2013-8-19,96.4,87.6,82.2,79.2,76.9,73.8,87,72,54,30.03,29.91,14,3,14,0.00
2013-8-20,96.1,87.0,80.2,78.0,75.4,70.9,88,69,49,30.03,29.91,172,3,172,0.04
2013-8-21,93.2,85.6,79.9,80.4,78.3,73.0,92,79,60,30.03,29.94,12,4,12,0.12
2013-8-22,95.9,88.2,82.4,78.8,76.8,74.4,83,70,57,30.03,29.88,13,4,13,0.12
2013-8-23,100.2,89.1,81.7,81.2,75.8,71.9,85,67,44,29.97,29.88,58,2,58,0.12
2013-8-24,100.6,89.2,80.8,82.9,75.0,70.0,86,64,43,30.06,29.91,11,3,11,0.00
2013-8-25,95.2,84.9,78.4,78.8,74.2,70.1,90,72,52,30.09,29.97,115,3,115,0.00
2013-8-26,95.9,84.2,76.6,80.2,74.6,70.6,91,75,47,30.06,29.94,12,2,12,0.13
2013-8-27,95.0,81.4,75.6,79.5,74.1,69.4,95,80,52,30.00,29.91,10,2,10,10.18
2013-8-28,96.6,84.2,77.5,77.4,73.7,66.7,88,72,40,29.97,29.88,58,2,58,10.30
2013-8-29,78.4,76.3,75.4,73.4,72.9,72.3,93,89,83,29.97,29.91,4,1,4,0.00
2013-9-3,96.4,89.0,75.4,80.1,75.1,69.8,93,65,50,29.97,29.88,9,3,9,0.70
2013-9-4,98.4,86.7,80.6,80.1,77.5,74.7,88,75,53,30.03,29.88,8,2,8,0.00
2013-9-5,96.1,86.2,82.2,79.3,77.5,0.0,100,77,54,30.06,29.94,9,2,9,0.00
2013-9-13,93.6,85.9,75.2,83.8,77.1,74.3,97,76,58,29.97,29.76,58,2,58,2.66
2013-9-14,98.6,85.9,76.6,84.2,75.0,69.2,95,72,44,29.91,29.76,58,2,229,0.00
2013-9-15,92.8,82.7,77.2,81.0,77.2,72.9,95,84,65,30.00,29.85,58,2,58,1.33
2013-9-16,90.7,81.6,79.5,81.0,77.7,75.6,94,88,65,30.00,29.88,176,4,229,0.29
2013-9-17,82.8,78.9,74.5,78.9,76.0,72.4,96,91,84,30.00,29.88,15,3,229,1.54
2013-9-18,90.0,79.4,75.0,83.8,75.8,72.1,96,89,75,29.97,29.85,11,2,229,3.28
2013-9-19,93.4,82.9,74.7,84.0,75.5,70.3,97,80,61,29.97,29.88,15,4,15,0.00
2013-9-20,92.1,83.6,77.5,74.2,69.6,65.1,82,64,43,29.94,29.82,14,4,14,0.00
2013-9-21,93.7,83.8,76.1,79.6,71.6,67.9,85,68,46,29.85,29.71,58,2,58,20.10
2013-9-22,95.0,85.0,77.0,82.7,76.0,0.0,92,76,55,29.82,29.71,15,2,15,0.16
2013-9-23,95.0,83.6,78.3,85.6,77.4,75.1,93,82,60,29.91,29.79,10,1,10,0.13
2013-9-24,99.3,82.2,76.3,84.9,76.8,72.7,95,85,51,29.94,29.82,10,2,10,1.66
2013-9-25,94.3,83.0,75.4,81.0,73.5,64.6,93,75,42,29.85,29.74,15,3,15,0.00
2013-9-26,96.3,82.8,77.5,81.8,76.9,69.2,92,83,50,29.82,29.71,24,4,24,0.25
2013-9-27,92.8,82.4,75.0,79.4,74.0,66.9,94,77,45,29.85,29.76,14,3,14,0.00
2013-9-28,92.5,82.4,75.7,81.0,73.1,68.5,92,75,52,29.91,29.82,15,4,15,0.13
2013-9-29,94.1,83.3,75.4,77.2,68.9,63.1,86,63,40,29.91,29.82,13,3,13,0.00
2013-9-30,93.4,83.6,75.2,79.1,69.7,66.3,88,65,43,29.94,29.82,8,2,8,0.00
2013-10-1,93.0,84.8,79.9,75.7,71.2,67.6,77,65,50,30.00,29.88,2,2,2,22.43
2013-10-2,92.8,84.6,80.4,73.7,71.1,49.0,76,65,47,30.00,29.91,2,2,2,0.00
2013-10-3,92.3,84.3,79.9,75.0,71.5,65.7,80,66,48,30.03,29.88,2,2,2,0.00
2013-10-4,93.2,84.1,79.5,74.4,69.7,47.6,78,63,42,30.00,29.91,11,3,11,22.43
2013-10-5,93.2,83.2,74.5,77.0,70.5,65.5,89,67,45,29.97,29.85,13,3,13,0.00
2013-10-6,93.2,84.2,78.8,78.4,72.6,68.2,84,69,49,29.91,29.82,8,2,8,0.00
2013-10-7,96.6,82.0,75.9,79.5,71.7,61.7,90,74,36,29.85,29.76,23,3,23,0.00
2013-10-8,93.6,83.6,77.0,82.2,73.9,69.6,94,74,48,29.88,29.76,15,3,15,0.00
2013-10-9,89.8,80.0,74.7,77.6,73.4,69.5,90,81,64,29.94,29.82,13,4,13,22.43
2013-10-10,90.7,81.3,73.4,76.5,70.6,66.4,91,71,50,29.97,29.88,14,4,14,0.00
2013-10-11,90.0,81.9,72.7,75.3,65.2,61.3,87,58,42,29.97,29.88,14,4,14,0.00
2013-10-12,92.5,79.6,71.1,73.4,65.9,60.8,88,65,39,30.00,29.88,58,2,58,22.43
2013-10-13,90.9,80.2,74.1,72.8,63.5,53.8,86,60,32,30.00,29.91,15,2,15,0.00
2013-10-14,92.3,80.6,72.3,72.1,66.1,61.9,88,63,40,29.97,29.82,58,2,58,0.00
2013-10-15,88.5,78.9,73.0,74.3,70.3,66.4,90,76,53,29.91,29.82,12,2,12,0.00
2013-10-16,83.5,79.6,78.8,70.7,68.4,0.0,100,73,63,29.91,29.82,6,2,6,0.52
2013-10-17,91.4,81.7,74.1,76.9,69.7,64.2,88,68,43,29.91,29.82,10,2,10,22.95
2013-10-18,78.8,78.3,77.9,71.8,70.7,69.7,80,78,75,29.88,29.82,4,1,4,0.00
2013-10-21,83.1,82.7,76.5,75.2,74.7,70.6,82,77,74,29.94,29.91,10,2,10,0.00
2013-10-22,82.6,82.2,82.2,76.2,76.2,75.0,82,82,78,29.91,29.76,16,4,16,0.00
2013-10-23,82.2,82.2,82.2,76.2,76.2,76.2,82,82,82,29.91,29.76,14,3,14,0.00
2013-10-24,82.2,81.5,77.0,76.2,73.8,56.0,82,78,48,30.03,29.88,14,4,14,0.00
2013-10-25,88.0,78.0,72.0,63.8,58.8,53.4,67,52,34,30.12,30.00,15,4,15,0.00
2013-10-26,88.0,77.8,71.4,62.2,57.1,54.4,67,50,34,30.12,30.00,10,3,10,0.00
2013-10-27,71.6,69.3,69.1,59.5,58.2,57.8,68,68,65,30.06,29.94,12,2,12,0.00
2013-10-28,87.4,75.1,69.1,63.6,60.0,55.2,70,61,35,30.09,29.97,10,2,10,0.00
2013-11-3,85.6,81.4,75.4,57.9,56.8,54.1,51,43,39,30.03,29.85,20,6,20,22.95
2013-11-4,83.7,77.4,73.8,65.9,58.2,48.7,67,52,38,30.03,29.94,58,7,58,22.95
2013-11-5,84.6,79.7,76.1,68.4,65.9,60.0,66,63,51,30.03,29.94,23,9,23,22.95
2013-11-6,80.8,80.8,80.8,67.9,67.9,67.9,65,65,65,30.03,29.94,15,6,18,22.95
2013-11-7,80.8,80.8,80.8,67.9,67.9,67.9,65,65,65,29.97,29.82,115,2,115,22.95
2013-11-8,80.8,61.3,0.0,67.9,51.5,0.0,65,49,65,30.00,29.88,18,5,18,0.29
2013-11-9,0.0,0.0,0.0,0.0,0.0,0.0,0,0,100,30.06,29.94,176,8,176,23.36
2013-11-10,87.4,44.5,0.0,70.5,36.8,0.0,63,33,55,30.06,29.97,118,5,118,0.08
2013-11-11,82.9,31.0,0.0,69.1,25.8,0.0,63,24,63,30.09,29.97,61,5,61,0.00
2013-11-12,0.0,0.0,0.0,0.0,0.0,0.0,0,0,100,30.03,29.88,12,3,12,0.00
2013-11-13,0.0,0.0,0.0,0.0,0.0,0.0,0,0,100,29.97,29.94,10,4,10,0.00
2013-11-14,77.2,72.9,0.0,56.6,52.6,0.0,56,48,41,30.15,29.94,115,7,229,23.49
2013-11-15,86.0,77.6,73.0,65.2,62.5,54.7,66,60,46,30.09,29.97,58,6,229,0.00
2013-11-16,77.9,77.9,77.9,65.2,65.2,65.2,65,65,65,30.06,29.94,115,4,115,0.08
2013-11-17,77.9,77.9,77.9,65.2,65.2,65.2,65,65,65,30.03,29.94,10,3,10,0.00
2013-11-18,77.9,77.9,77.9,65.2,65.2,65.2,65,65,65,29.97,29.91,6,0,6,0.00
2013-11-23,0.0,0.0,0.0,0.0,0.0,0.0,0,0,100,30.00,29.91,186,2,186,0.62
2013-11-24,0.0,0.0,0.0,0.0,0.0,0.0,0,0,100,30.09,29.91,19,5,19,0.54
2013-11-25,0.0,0.0,0.0,0.0,0.0,0.0,0,0,100,30.18,30.00,23,9,23,24.73
2013-11-26,0.0,0.0,0.0,0.0,0.0,0.0,0,0,100,30.03,29.79,20,6,20,24.77
2013-11-27,0.0,0.0,0.0,0.0,0.0,0.0,0,0,100,30.06,29.71,20,6,20,0.50
2013-11-28,71.1,13.0,0.0,52.0,9.1,0.0,51,9,44,30.21,30.06,17,5,17,0.00
2013-11-29,76.8,71.4,69.3,56.1,51.6,48.0,51,50,46,30.24,30.12,18,6,18,25.27
2013-11-30,74.7,74.7,74.7,55.3,55.3,55.3,51,51,51,30.15,30.06,20,5,20,0.00
2013-12-1,74.7,74.7,74.7,55.3,55.3,55.3,51,51,51,30.06,29.91,12,2,12,1.54
2013-12-2,74.7,50.8,0.0,55.3,37.6,0.0,51,35,51,29.91,29.76,13,3,13,0.16
2013-12-3,0.0,0.0,0.0,0.0,0.0,0.0,0,0,100,29.97,29.85,8,1,8,0.00
2013-12-4,0.0,0.0,0.0,0.0,0.0,0.0,0,0,100,30.06,29.94,13,2,13,26.97
2013-12-5,0.0,0.0,0.0,0.0,0.0,0.0,0,0,100,30.12,30.00,16,2,16,0.00
2013-12-6,0.0,0.0,0.0,0.0,0.0,0.0,0,0,100,30.15,30.00,19,4,19,26.97
2013-12-7,0.0,0.0,0.0,0.0,0.0,0.0,0,0,100,30.18,30.06,173,2,229,0.00
2013-12-8,0.0,0.0,0.0,0.0,0.0,0.0,0,0,100,30.18,30.06,115,3,115,0.00
2013-12-9,0.0,0.0,0.0,0.0,0.0,0.0,0,0,100,30.18,30.06,15,3,15,26.97
2013-12-10,0.0,0.0,0.0,0.0,0.0,0.0,0,0,100,30.09,30.00,13,3,13,0.00
2013-12-11,0.0,0.0,0.0,0.0,0.0,0.0,0,0,100,30.18,30.06,9,2,9,0.00
2013-12-12,0.0,0.0,0.0,0.0,0.0,0.0,0,0,100,30.18,30.06,18,4,18,0.00
2013-12-13,0.0,0.0,0.0,0.0,0.0,0.0,0,0,100,30.15,30.03,20,6,20,0.41
2013-12-14,0.0,0.0,0.0,0.0,0.0,0.0,0,0,100,30.06,29.94,15,4,15,0.41
2013-12-15,0.0,0.0,0.0,0.0,0.0,0.0,0,0,100,29.97,29.88,11,4,11,0.34
2013-12-16,0.0,0.0,0.0,0.0,0.0,0.0,0,0,100,30.12,29.88,7,4,9,0.34
2013-12-17,0.0,0.0,0.0,0.0,0.0,0.0,0,0,100,30.18,30.06,14,3,14,0.34
2013-12-18,0.0,0.0,0.0,0.0,0.0,0.0,0,0,100,30.21,30.12,13,3,13,0.34
2013-12-19,0.0,0.0,0.0,0.0,0.0,0.0,0,0,100,30.24,30.12,11,3,11,0.34
2013-12-20,0.0,0.0,0.0,0.0,0.0,0.0,0,0,100,30.18,30.06,115,4,115,0.34
2013-12-21,0.0,0.0,0.0,0.0,0.0,0.0,0,0,100,30.12,30.00,17,4,17,0.34
2013-12-22,0.0,0.0,0.0,0.0,0.0,0.0,0,0,100,30.09,30.03,19,5,19,0.34
2013-12-23,81.1,17.0,0.0,69.1,15.6,0.0,89,18,58,30.12,30.06,17,4,17,0.34
2013-12-24,87.6,72.8,68.5,73.7,66.6,61.2,96,82,53,30.15,30.03,18,3,18,0.00
2013-12-25,79.3,73.1,70.7,67.2,63.9,61.1,88,73,60,30.12,30.03,22,6,22,0.00
2013-12-26,81.3,75.2,72.1,69.7,68.1,65.4,86,79,67,30.12,30.00,14,5,14,0.04
2013-12-27,83.8,76.7,72.1,71.3,68.9,67.3,92,77,63,30.15,30.03,15,5,15,0.04
2013-12-28,81.7,77.4,73.9,72.9,69.3,0.0,100,79,48,30.15,29.97,115,5,115,0.04
2013-12-29,84.0,77.7,73.9,75.6,73.2,71.7,95,86,73,29.97,29.85,17,5,17,0.00
2013-12-30,80.4,73.4,69.4,72.6,69.4,64.4,96,88,71,30.12,29.91,10,3,10,0.05
2013-12-31,80.2,73.2,68.4,66.2,63.0,60.0,87,71,53,30.18,30.06,15,5,16,0.00
2014-1-1,83.8,76.8,73.0,73.5,69.4,62.0,90,78,68,30.18,30.00,15,5,15,0.00
2014-1-2,87.3,78.2,70.0,72.6,67.1,61.4,94,71,45,30.00,29.82,16,4,16,0.00